Observations for Trim Patrick St
| Time | AQI | Temp °C | Hum % | Pres Pa | CO μg/m³ | H₂S μg/m³ | NO μg/m³ | NO₂ μg/m³ | O₃ μg/m³ | SO₂ μg/m³ | PM1 μg/m³ | PM2.5 μg/m³ | PM10 μg/m³ |
|---|---|---|---|---|---|---|---|---|---|---|---|---|---|
| Sunday 2 August 2026 | |||||||||||||
| 13:04 | 2 | 27.4 | 37 | 69,084 | 0 | 0 | 1.33 | 15.38 | 87.56 | 9.71 | 2.86 | 9.61 | 10.57 |
| 13:03 | 2 | 27.3 | 37 | 69,076 | 0 | 0 | 1.41 | 13.61 | 84.22 | 9.93 | 3.71 | 8.84 | 9.72 |
| 13:02 | 2 | 27.3 | 38 | 69,098 | 0 | 0 | 1.47 | 15.5 | 80.79 | 8.4 | 3.71 | 10.33 | 11.36 |
| 12:59 | 2 | 27.2 | 37 | 69,082 | 0 | 0 | 1.44 | 16.42 | 107.15 | 9.31 | 3.71 | 10.39 | 11.43 |
| 12:58 | 2 | 27.3 | 39 | 69,100 | 0 | 0 | 1.5 | 11.89 | 73.22 | 8.8 | 2.86 | 8.68 | 9.55 |
| 12:57 | 2 | 27.3 | 38 | 69,102 | 0 | 0 | 1.48 | 13.69 | 78.88 | 9.56 | 3.71 | 8.73 | 9.6 |
| 12:56 | 2 | 27.2 | 37 | 69,102 | 0 | 0 | 1.4 | 13.96 | 80.41 | 9.97 | 2.86 | 8.82 | 9.7 |
| 12:55 | 2 | 27.2 | 38 | 69,098 | 0 | 0 | 1.37 | 18.07 | 93.32 | 9.98 | 2 | 7.99 | 8.79 |
| 12:53 | 2 | 27.2 | 38 | 69,082 | 0 | 0 | 1.42 | 14 | 73.25 | 8.56 | 3.71 | 8.73 | 9.6 |
| 12:50 | 2 | 27.1 | 38 | 69,061 | 0 | 0 | 1.46 | 18.27 | 84.79 | 8.72 | 3.71 | 9.57 | 10.53 |
| 12:49 | 2 | 27 | 37 | 69,076 | 0 | 0 | 1.45 | 15.26 | 82.78 | 8.8 | 3.71 | 9.58 | 10.54 |
| 12:48 | 2 | 27 | 39 | 69,071 | 0 | 0 | 1.49 | 19.19 | 94.49 | 8.66 | 2.86 | 9.49 | 10.44 |
| 12:47 | 2 | 27 | 38 | 69,084 | 0 | 0 | 1.47 | 11.62 | 91.05 | 10.87 | 2 | 7.95 | 8.75 |
| 12:46 | 2 | 26.9 | 37 | 69,074 | 0 | 5.53 | 1.44 | 24.81 | 84.01 | 9.74 | 2.86 | 8.81 | 9.7 |
| 12:45 | 2 | 26.9 | 38 | 69,061 | 0 | 0 | 1.49 | 16.69 | 143.97 | 11.05 | 2.86 | 7.93 | 8.72 |
| 12:44 | 2 | 26.8 | 36 | 69,072 | 0 | 0 | 1.42 | 8.5 | 75.05 | 8.62 | 2.86 | 8.9 | 9.79 |
| 12:43 | 2 | 26.8 | 38 | 69,063 | 0 | 0 | 1.42 | 14.76 | 115.89 | 8.8 | 2.86 | 9.56 | 10.52 |
| 12:42 | 2 | 26.8 | 37 | 69,051 | 0 | 0 | 1.45 | 7.99 | 74.27 | 7.74 | 2 | 8.81 | 9.69 |
| 12:41 | 2 | 26.8 | 38 | 69,067 | 0 | 0 | 1.46 | 13.46 | 78.35 | 8.62 | 3.71 | 10.34 | 11.37 |
| 12:40 | 2 | 26.8 | 38 | 69,057 | 0 | 0 | 1.48 | 14.41 | 106.36 | 8.52 | 2.86 | 8.73 | 9.61 |